Temp
63 62 63 63 63 63 62 62 62 62 62 62 62 61 61 62 62 62 63 64 65 65 64 64 63 63 63 58 60 73 69 71 74 71 68 67 65 65 60 65 66 61 65 69 69 69 68
63 63 63 62 62 62 62 62 61 61 61 62 62 62 61 61 61 61 61 62 64 64 64 63 63 62 62 51 73 75 74 73 74 69 66 68 66 68 64 63 61 65 64 65 67 67 67
62 62 62 61 62 62 62 61 61 61 61 61 61 61 60 60 60 61 60 61 63 64 64 63 63 65 58 60 73 74 72 72 73 72 64 67 67 61 63 58 64 62 56 62 64 65 63
62 62 62 62 62 61 60 60 60 60 61 61 61 60 60 59 59 59 59 59 62 63 63 63 63 64 55 69 73 69 72 70 74 73 69 68 67 61 62 63 60 56 58 52 64 64 66
62 62 62 62 61 60 60 59 60 59 60 60 60 59 59 59 58 59 59 58 58 61 63 63 61 60 54 65 61 70 72 67 69 70 70 69 63 57 57 54 52 55 50 54 58 66 63
61 61 61 61 61 60 60 59 59 59 58 58 59 58 57 57 57 57 58 57 57 59 61 61 62 52 59 57 63 66 71 70 65 65 62 61 60 55 55 53 45 50 50 53 54 61 59
61 61 60 60 60 59 59 58 59 58 58 57 58 57 55 56 57 57 55 51 49 47 53 53 53 55 58 63 66 62 68 66 64 61 51 56 47 46 54 57 58 55 52 52 57 62 57
61 61 60 59 60 58 58 58 57 58 57 57 57 57 56 57 56 57 54 45 47 52 45 58 58 58 61 64 54 59 68 57 54 48 53 46 42 54 58 56 54 52 49 50 56 60 56
60 60 59 59 58 58 57 57 57 57 56 57 56 55 56 55 56 55 52 48 54 52 46 50 56 56 56 59 56 54 61 59 53 49 48 45 50 56 53 50 47 49 46 48 49 55 56
59 59 59 59 58 57 57 57 56 56 56 56 57 54 54 55 51 55 52 56 53 51 37 40 46 53 56 58 51 63 64 58 52 47 49 47 55 50 49 47 50 44 54 52 49 45 41
59 59 57 57 57 56 56 56 56 56 57 57 57 56 53 54 49 46 53 53 51 48 28 45 46 62 58 53 53 53 64 56 48 50 49 46 47 46 44 47 52 45 50 47 46 42 39
59 57 57 56 56 56 56 56 56 57 57 56 56 55 55 50 53 56 55 52 47 32 27 37 43 43 45 51 51 53 53 58 58 50 51 51 54 52 51 52 52 51 47 45 45 40 29
58 57 57 56 56 56 56 56 56 57 57 56 56 55 53 53 49 61 54 47 31 29 44 34 38 44 43 42 45 46 44 43 42 34 35 45 45 50 53 46 49 47 39 33 30 28 32
58 57 57 56 56 56 56 56 56 57 56 55 55 55 55 58 59 56 47 37 28 38 40 46 42 44 39 43 44 45 42 39 47 47 41 35 34 46 50 47 43 41 41 35 28 34 40
57 56 56 56 56 56 56 55 56 56 56 55 54 54 53 55 57 53 41 31 35 44 45 41 41 37 37 42 44 45 42 41 47 48 38 38 37 50 51 52 50 41 33 46 36 40 33
57 56 56 56 56 56 55 55 56 56 55 55 49 46 48 57 58 47 38 34 41 50 49 48 38 41 35 39 40 42 41 49 46 53 55 46 35 47 49 50 50 45 48 32 32 25 28
56 56 56 56 55 55 55 56 56 56 55 54 45 39 47 53 54 43 34 35 45 53 52 48 44 42 42 40 43 41 41 49 53 51 52 48 43 39 43 39 42 39 36 37 41 38 30
56 56 55 56 55 55 55 55 55 55 55 50 42 34 49 56 37 40 36 40 49 49 51 50 52 49 46 45 42 43 45 48 55 54 45 49 42 34 39 51 53 50 43 42 31 32 34
56 56 55 55 55 54 55 55 55 55 54 47 38 36 51 48 35 37 39 43 49 47 49 49 48 51 52 47 42 47 48 52 53 51 48 48 39 31 35 44 50 43 46 46 42 37 31
56 56 55 55 55 55 55 54 54 55 54 49 40 34 40 43 48 45 38 43 43 51 50 53 50 53 50 47 50 46 45 48 52 52 49 51 43 35 34 40 44 34 40 43 38 30 35
56 56 56 55 55 55 54 54 54 54 54 48 41 38 42 36 42 46 44 45 43 44 51 53 49 49 49 44 45 44 48 48 50 51 50 48 34 37 41 43 43 39 40 40 33 35 30
56 56 55 55 55 55 54 54 54 54 54 46 38 37 42 47 51 50 47 43 43 46 49 46 47 50 50 47 48 44 48 48 46 49 47 46 34 36 33 41 41 36 41 40 38 37 36
55 55 55 55 54 54 54 54 54 54 53 43 44 45 41 47 48 48 48 48 47 50 50 52 51 49 47 49 53 53 53 51 50 46 43 41 35 33 31 42 41 37 39 38 39 42 39
55 55 55 54 54 54 54 54 54 53 53 46 46 43 41 40 49 49 49 50 49 49 47 50 51 49 50 58 57 56 54 50 50 47 49 40 36 34 32 35 30 44 51 45 42 47 49
55 54 54 54 54 54 53 53 53 53 53 46 46 43 41 43 49 49 50 50 51 52 49 49 50 55 58 53 47 44 44 41 45 48 46 46 37 33 31 34 43 46 49 45 41 43 51
54 54 54 54 53 53 53 53 53 53 53 48 46 47 43 39 49 54 51 52 48 48 48 50 54 56 55 49 44 36 36 42 40 40 47 45 42 36 33 30 30 47 54 54 52 39 52
54 53 53 53 52 52 52 52 53 53 53 50 46 48 42 40 54 55 51 50 54 52 47 47 48 47 52 44 38 37 38 46 40 41 38 38 37 33 34 32 42 54 54 54 40 43 52
53 53 53 52 52 52 52 52 52 52 52 51 47 48 42 39 45 56 59 54 53 53 47 48 46 46 42 40 38 38 36 45 43 49 46 44 39 37 38 33 33 57 57 48 53 56 54
53 53 52 52 52 52 52 52 52 52 52 52 44 49 48 39 43 56 59 59 59 59 55 51 49 49 49 41 39 41 39 44 44 38 51 43 51 47 48 49 59 59 56 59 57 54 55
MSLP
1020.30 1020.04 1019.47 1019.00 1018.61 1018.19 1017.81 1017.37 1016.98 1016.59 1016.10 1015.57 1015.31 1014.92 1014.38 1013.72 1013.26 1012.78 1012.13 1011.72 1011.71 1012.07 1012.36 1012.44 1012.45 1012.38 1012.20 1011.27 1009.83 1009.86 1010.42 1010.23 1009.98 1010.57 1010.20 1010.03 1009.78 1009.59 1008.97 1008.62 1008.93 1008.93 1008.52 1007.96 1008.03 1007.98 1007.92
1020.30 1019.89 1019.41 1018.94 1018.46 1018.00 1017.56 1017.05 1016.69 1016.29 1015.83 1015.31 1014.82 1014.36 1014.10 1013.73 1013.20 1012.71 1012.15 1011.73 1011.43 1011.74 1012.13 1012.21 1012.14 1012.22 1011.79 1010.33 1009.59 1009.70 1009.96 1009.84 1009.44 1010.03 1010.18 1010.16 1009.81 1009.61 1009.31 1009.14 1009.30 1008.87 1008.90 1008.52 1008.25 1008.09 1008.11
1020.05 1019.65 1019.26 1018.82 1018.25 1017.74 1017.33 1016.86 1016.33 1015.87 1015.39 1014.94 1014.49 1013.96 1013.78 1013.47 1013.01 1012.49 1012.03 1011.48 1011.08 1011.21 1011.78 1012.02 1012.05 1012.07 1011.38 1009.69 1009.64 1009.91 1010.10 1009.70 1009.52 1009.31 1009.87 1010.48 1010.73 1010.79 1010.30 1009.83 1009.83 1009.81 1009.41 1008.61 1007.97 1007.93 1007.80
1019.90 1019.38 1018.91 1018.39 1017.93 1017.44 1017.17 1016.68 1016.18 1015.64 1015.11 1014.61 1014.12 1013.70 1013.28 1012.96 1012.64 1012.17 1011.83 1011.32 1010.69 1010.84 1011.39 1011.58 1011.79 1011.62 1010.38 1009.88 1009.94 1010.27 1009.95 1009.87 1009.71 1009.68 1010.14 1010.83 1011.15 1011.28 1010.45 1010.43 1010.15 1009.78 1009.04 1007.93 1006.45 1007.05 1007.19
1019.65 1019.06 1018.68 1018.10 1017.57 1017.13 1016.70 1016.26 1015.66 1015.37 1014.78 1014.35 1013.79 1013.44 1013.01 1012.59 1012.26 1011.80 1011.42 1011.24 1010.78 1010.48 1011.02 1011.31 1011.69 1011.16 1009.90 1010.47 1010.24 1009.82 1009.90 1009.71 1009.95 1009.79 1010.05 1010.95 1011.44 1011.43 1011.22 1010.66 1009.76 1009.16 1007.88 1007.11 1006.56 1006.76 1007.26
1019.54 1018.92 1018.26 1017.80 1017.27 1016.71 1016.22 1015.71 1015.28 1014.93 1014.53 1014.09 1013.52 1013.11 1012.89 1012.43 1011.90 1011.52 1011.11 1010.86 1010.35 1010.46 1010.98 1011.26 1011.00 1011.21 1009.75 1009.40 1009.66 1009.78 1010.01 1009.71 1009.85 1009.78 1010.21 1010.72 1010.95 1010.86 1010.74 1009.98 1008.48 1007.76 1007.84 1007.36 1006.77 1006.85 1007.40
1019.36 1018.78 1018.14 1017.66 1016.90 1016.43 1015.92 1015.51 1014.91 1014.45 1014.02 1013.66 1013.11 1012.73 1012.52 1011.93 1011.73 1011.36 1011.29 1011.10 1009.94 1010.44 1009.81 1008.98 1009.17 1008.93 1009.09 1009.62 1009.97 1009.97 1009.97 1009.80 1009.90 1009.96 1010.06 1010.83 1011.21 1010.44 1009.63 1009.37 1008.80 1008.53 1008.34 1007.62 1007.15 1007.23 1007.34
1019.27 1018.46 1017.96 1017.50 1016.73 1016.34 1015.75 1015.02 1014.61 1014.01 1013.61 1013.20 1012.69 1012.32 1012.06 1011.60 1011.48 1011.10 1011.02 1010.90 1010.07 1009.97 1009.28 1008.67 1008.84 1009.01 1009.41 1009.36 1009.58 1009.87 1009.82 1009.74 1009.87 1009.97 1010.49 1011.28 1011.01 1010.42 1010.14 1009.87 1009.61 1009.36 1008.96 1008.43 1007.96 1007.74 1007.93
1019.17 1018.43 1017.81 1017.25 1016.74 1016.06 1015.37 1014.76 1014.23 1013.66 1013.24 1012.68 1012.29 1011.93 1011.73 1011.48 1011.06 1010.53 1010.08 1010.27 1010.04 1009.89 1008.92 1008.78 1008.83 1008.65 1009.36 1009.57 1008.89 1009.56 1009.75 1009.48 1009.75 1009.94 1010.27 1010.31 1010.27 1010.20 1010.45 1010.44 1010.35 1009.97 1009.69 1009.26 1008.97 1008.60 1008.39
1019.05 1018.24 1017.46 1016.93 1016.38 1015.73 1015.07 1014.45 1013.88 1013.42 1012.85 1012.35 1011.67 1011.57 1011.27 1011.05 1010.78 1009.56 1009.07 1008.91 1010.03 1010.09 1009.47 1009.06 1008.68 1008.47 1009.07 1009.09 1009.11 1009.36 1009.72 1009.56 1009.88 1010.00 1010.33 1010.65 1010.36 1010.76 1010.62 1010.52 1010.59 1010.10 1009.92 1009.87 1009.95 1009.99 1008.63
1018.75 1017.99 1017.54 1016.86 1016.13 1015.47 1014.77 1014.10 1013.54 1013.04 1012.33 1011.64 1011.22 1010.91 1010.76 1010.83 1010.16 1009.70 1008.97 1009.14 1009.68 1010.50 1008.88 1008.56 1008.52 1008.10 1008.43 1008.80 1009.19 1009.70 1009.61 1010.00 1009.79 1009.69 1010.41 1010.45 1010.62 1010.75 1010.94 1010.67 1010.83 1010.81 1011.11 1011.22 1011.11 1010.77 1009.98
1018.59 1018.06 1017.27 1016.59 1015.85 1015.19 1014.52 1013.87 1013.13 1012.43 1011.77 1011.29 1010.60 1010.17 1009.61 1009.24 1009.13 1008.28 1008.67 1009.36 1010.05 1009.99 1007.73 1008.08 1008.61 1008.37 1008.61 1008.91 1009.28 1009.64 1009.97 1010.40 1010.02 1010.24 1010.70 1010.46 1011.09 1010.93 1010.66 1010.99 1011.13 1011.58 1011.62 1011.84 1011.74 1011.41 1009.70
1018.34 1017.91 1017.09 1016.37 1015.63 1014.98 1014.35 1013.63 1012.94 1012.14 1011.45 1010.89 1010.05 1009.10 1008.25 1007.99 1007.69 1007.37 1008.65 1008.92 1009.78 1007.92 1007.11 1007.96 1008.00 1008.19 1008.46 1008.87 1009.30 1009.71 1009.96 1010.24 1009.98 1010.73 1010.65 1010.75 1010.62 1011.02 1011.06 1011.03 1011.38 1011.74 1012.15 1011.44 1011.24 1010.73 1007.73
1018.19 1017.73 1016.91 1016.19 1015.53 1014.86 1014.14 1013.47 1012.61 1011.87 1011.26 1010.49 1009.45 1008.19 1007.41 1006.94 1007.36 1007.85 1008.99 1009.08 1007.97 1006.15 1006.12 1006.89 1007.50 1008.15 1008.41 1008.81 1009.18 1009.51 1009.87 1009.95 1010.04 1009.92 1009.75 1010.01 1009.76 1010.04 1010.64 1010.61 1010.75 1011.50 1011.77 1010.92 1009.51 1008.22 1006.03
1018.08 1017.55 1016.82 1016.10 1015.38 1014.62 1013.95 1013.30 1012.38 1011.73 1010.98 1010.14 1008.97 1007.87 1007.31 1007.39 1007.59 1007.88 1008.32 1008.23 1006.07 1004.58 1005.35 1006.03 1007.52 1007.90 1008.12 1008.57 1008.63 1009.00 1009.23 1009.33 1009.27 1009.50 1009.48 1009.24 1009.34 1009.60 1010.01 1010.36 1010.75 1011.19 1011.67 1011.36 1010.75 1009.32 1007.61
1018.00 1017.46 1016.69 1015.98 1015.27 1014.53 1013.80 1013.08 1012.26 1011.48 1010.68 1009.91 1009.14 1008.67 1008.07 1008.03 1008.21 1008.54 1008.44 1007.18 1005.69 1004.65 1004.92 1005.69 1005.93 1006.74 1007.19 1007.81 1008.05 1008.26 1008.69 1008.30 1008.63 1008.59 1008.83 1009.08 1009.46 1009.68 1009.99 1010.68 1010.75 1010.79 1011.26 1011.68 1011.57 1009.41 1006.49
1018.06 1017.37 1016.60 1015.84 1015.19 1014.50 1013.76 1012.93 1012.11 1011.24 1010.37 1009.71 1009.22 1008.96 1008.69 1008.59 1008.64 1008.68 1008.14 1006.91 1005.51 1005.14 1005.00 1004.89 1005.07 1005.66 1006.41 1007.09 1007.44 1007.80 1008.12 1007.77 1007.88 1008.03 1008.84 1009.28 1009.56 1010.17 1010.56 1010.13 1009.46 1010.60 1010.91 1011.22 1010.44 1009.28 1006.91
1017.94 1017.27 1016.57 1015.81 1015.07 1014.40 1013.78 1012.86 1012.00 1011.02 1009.97 1009.08 1009.19 1009.22 1009.12 1008.48 1008.60 1008.09 1007.78 1006.72 1005.70 1005.60 1005.38 1004.86 1004.83 1004.87 1005.68 1006.61 1007.03 1007.17 1006.83 1007.15 1007.64 1007.94 1008.32 1009.21 1009.62 1009.69 1009.11 1008.70 1008.96 1009.04 1009.49 1010.20 1010.11 1008.14 1007.20
1018.00 1017.12 1016.58 1015.80 1015.03 1014.50 1013.74 1012.91 1012.06 1010.91 1009.80 1009.02 1009.57 1009.69 1009.37 1009.10 1008.46 1007.94 1007.74 1006.58 1005.94 1005.76 1005.19 1004.93 1004.92 1005.06 1005.45 1005.98 1006.35 1006.51 1006.79 1007.60 1007.92 1008.15 1008.36 1009.22 1009.79 1009.73 1008.78 1008.43 1008.36 1008.65 1008.86 1008.88 1008.81 1008.67 1006.18
1017.75 1016.99 1016.36 1015.68 1015.06 1014.49 1013.87 1013.03 1012.21 1011.00 1009.67 1009.26 1009.82 1009.82 1009.44 1008.84 1007.67 1006.99 1007.01 1006.38 1006.08 1005.94 1005.52 1005.08 1005.13 1005.18 1005.43 1005.80 1005.93 1006.35 1007.03 1007.83 1008.14 1008.43 1008.98 1009.28 1009.42 1009.65 1008.64 1007.68 1008.16 1008.97 1008.45 1008.38 1008.56 1007.54 1005.60
1017.72 1017.01 1016.35 1015.67 1015.16 1014.65 1014.01 1013.26 1012.42 1011.28 1009.97 1009.61 1009.74 1009.67 1009.23 1008.23 1007.28 1006.51 1006.66 1006.32 1006.17 1005.89 1005.82 1005.49 1005.49 1005.29 1005.30 1005.55 1006.00 1006.39 1006.96 1007.67 1008.32 1008.69 1009.23 1009.67 1009.68 1009.73 1009.11 1008.36 1007.87 1007.51 1007.24 1007.09 1007.28 1006.52 1005.85
1017.78 1016.96 1016.29 1015.65 1015.14 1014.77 1014.22 1013.52 1012.66 1011.70 1010.66 1010.30 1010.70 1010.26 1009.17 1007.70 1006.56 1006.14 1006.28 1006.44 1006.25 1006.09 1005.83 1005.83 1005.54 1005.68 1005.79 1005.65 1005.94 1006.14 1006.62 1007.18 1007.46 1008.54 1009.17 1009.80 1009.88 1009.77 1008.67 1007.71 1007.03 1006.26 1005.82 1005.80 1005.47 1004.93 1004.31
1017.71 1017.01 1016.41 1015.78 1015.30 1014.87 1014.39 1013.73 1013.04 1012.25 1011.37 1011.30 1011.30 1011.02 1010.42 1008.20 1006.86 1005.96 1005.76 1006.01 1006.16 1006.27 1006.54 1006.24 1006.10 1006.06 1006.26 1006.31 1006.51 1006.77 1007.03 1007.40 1007.69 1008.12 1008.91 1009.62 1010.07 1009.96 1007.86 1006.65 1005.73 1004.53 1004.47 1004.50 1004.16 1003.81 1003.46
1017.88 1017.11 1016.58 1016.02 1015.51 1015.07 1014.56 1014.03 1013.38 1012.85 1012.18 1012.07 1011.74 1011.36 1010.16 1008.51 1006.91 1005.91 1005.99 1005.97 1006.02 1006.26 1006.38 1006.71 1006.72 1006.54 1007.34 1007.03 1006.95 1006.73 1006.91 1007.27 1007.52 1008.04 1008.52 1009.04 1009.74 1009.71 1008.02 1006.51 1004.48 1003.15 1003.05 1003.44 1003.02 1002.36 1001.94
1017.80 1017.29 1016.72 1016.17 1015.67 1015.20 1014.71 1014.19 1013.69 1013.19 1012.42 1012.25 1012.00 1011.60 1010.66 1008.66 1006.91 1006.31 1005.98 1005.82 1006.08 1006.51 1006.71 1006.94 1007.14 1007.17 1007.25 1007.27 1006.83 1006.32 1006.37 1006.87 1006.44 1006.92 1007.64 1008.52 1009.30 1009.08 1007.98 1006.07 1003.33 1002.05 1001.89 1002.16 1002.35 1001.57 1001.20
1017.73 1017.35 1016.69 1016.15 1015.89 1015.53 1015.02 1014.47 1013.84 1013.30 1012.84 1012.31 1012.05 1011.99 1011.38 1009.89 1006.99 1006.02 1005.87 1005.84 1005.99 1006.24 1006.90 1007.06 1007.57 1007.59 1007.57 1007.38 1007.21 1006.85 1006.14 1005.85 1005.84 1006.67 1007.25 1007.80 1008.49 1008.62 1007.44 1005.94 1003.44 1001.28 1000.94 1001.46 1001.62 1001.07 1000.67
1017.46 1017.10 1016.54 1016.02 1015.48 1015.33 1015.10 1014.69 1014.17 1013.54 1013.00 1012.61 1012.34 1012.29 1011.71 1010.23 1007.31 1006.38 1005.75 1005.85 1006.17 1006.26 1006.67 1007.36 1007.68 1007.91 1008.01 1007.79 1007.59 1007.38 1006.56 1006.04 1005.41 1005.11 1006.14 1006.66 1007.08 1006.96 1006.36 1005.25 1002.56 1000.75 1000.88 1001.17 1001.14 1001.42 1000.86
1017.25 1016.97 1016.29 1015.86 1015.48 1014.99 1014.73 1014.47 1014.05 1013.71 1013.32 1012.92 1012.34 1012.23 1012.30 1011.10 1008.69 1006.95 1005.98 1006.08 1006.26 1006.29 1006.39 1007.48 1007.94 1008.03 1008.32 1008.13 1008.25 1007.95 1007.34 1006.03 1005.59 1004.40 1004.28 1004.31 1004.72 1004.84 1004.64 1003.85 1001.86 1000.63 1000.26 1000.72 1000.96 1000.96 1000.98
1017.01 1016.67 1016.11 1015.66 1015.35 1014.87 1014.52 1014.08 1013.81 1013.54 1013.17 1012.74 1012.38 1012.20 1012.16 1011.67 1009.52 1007.77 1006.96 1006.69 1006.57 1006.26 1006.59 1007.20 1007.45 1007.54 1007.92 1008.32 1008.75 1008.38 1007.46 1006.64 1005.62 1004.32 1003.80 1003.37 1002.66 1002.54 1002.25 1000.92 1000.10 1000.35 1000.47 1000.60 1000.98 1001.13 1001.08
Wind_Speed
17 18 18 17 19 18 19 19 19 19 20 20 20 20 20 21 22 23 19 16 14 12 11 8 6 5 4 9 7 9 3 6 10 14 15 13 14 13 11 10 9 13 16 12 12 14 14
17 18 18 19 21 20 20 19 19 20 20 22 20 20 19 21 21 21 20 19 16 14 12 8 5 4 9 12 4 3 3 4 10 19 15 12 7 6 6 6 10 1 10 13 13 14 15
18 18 18 19 20 22 20 21 20 21 21 21 24 21 19 21 21 20 19 20 18 14 13 10 7 7 9 11 2 2 5 4 4 13 16 8 3 4 7 5 8 9 13 14 18 18 15
19 20 21 21 21 22 22 22 22 22 23 22 22 20 20 22 22 21 19 22 15 16 15 12 8 6 6 3 5 5 5 6 4 8 7 9 5 4 5 4 5 7 10 11 5 6 12
21 21 21 22 23 23 22 22 20 22 21 23 22 20 23 21 23 20 16 22 23 16 16 13 8 7 6 6 6 11 8 9 8 8 7 9 6 5 3 9 8 11 10 13 9 8 7
21 22 23 23 24 25 24 24 22 22 21 22 23 21 21 19 20 17 16 19 20 15 13 6 2 5 7 6 6 6 10 9 11 13 10 7 6 7 10 11 8 9 14 10 10 5 8
22 24 24 26 25 26 26 24 22 22 21 22 19 20 17 15 17 16 11 5 5 6 12 8 12 2 7 7 8 9 14 14 11 13 8 9 8 12 16 15 15 5 9 10 9 7 15
23 25 26 26 28 26 24 23 22 23 21 21 19 18 18 18 17 21 9 2 11 7 9 11 5 7 4 8 7 11 14 11 14 13 11 6 13 16 11 10 11 12 14 15 14 12 12
25 26 25 25 27 25 25 24 23 23 21 20 19 18 15 18 18 15 12 10 10 8 5 16 11 13 8 8 7 16 17 12 16 16 16 10 3 11 13 11 10 12 13 13 15 16 17
23 24 25 25 24 25 24 23 23 21 21 22 20 12 15 18 14 9 11 6 6 6 5 11 12 8 8 6 5 14 15 9 6 14 13 12 7 5 11 13 12 12 9 11 12 10 7
24 25 24 26 26 25 24 23 22 21 20 20 19 19 13 16 8 7 7 11 8 1 7 16 12 9 12 10 15 12 14 3 10 10 7 4 7 13 11 12 9 7 3 4 6 10 13
25 25 25 24 25 24 24 23 22 22 21 21 20 22 22 10 10 11 6 12 4 5 5 7 7 13 16 14 7 10 10 5 2 6 11 9 2 5 9 6 11 3 4 6 7 4 8
26 25 24 24 24 24 23 22 23 23 23 24 25 28 21 7 5 9 8 3 2 5 11 9 10 15 17 12 11 13 13 12 8 6 9 11 14 7 9 9 7 9 3 2 4 6 8
25 25 24 23 24 23 23 23 23 22 23 25 28 23 8 5 5 12 3 5 8 8 8 7 13 17 9 17 10 14 14 12 14 11 4 8 7 20 14 15 6 13 11 5 7 8 12
23 24 24 23 23 23 23 23 23 21 23 25 20 9 2 6 7 7 3 3 2 12 12 13 18 11 7 17 8 13 14 11 14 14 7 6 4 3 7 8 12 7 10 15 13 18 14
23 24 23 23 23 23 23 25 23 23 24 25 8 6 3 9 10 4 1 1 3 8 16 18 7 6 8 18 10 13 13 13 11 18 12 1 3 7 7 4 9 10 4 2 5 6 11
25 24 24 23 22 23 23 25 23 25 25 25 1 1 3 3 4 3 1 2 7 18 7 2 9 10 9 14 11 14 16 6 17 15 16 6 4 5 4 11 13 9 10 7 9 9 7
24 24 24 23 22 22 23 25 25 27 28 9 2 2 5 6 3 2 1 3 11 10 1 4 7 5 15 16 10 13 10 2 8 9 13 10 1 6 12 9 8 14 15 16 9 11 9
23 25 23 22 22 22 23 24 26 28 29 3 3 2 2 3 3 4 1 2 5 3 1 3 5 2 8 13 6 6 8 5 10 12 11 10 5 3 4 4 11 12 17 18 19 16 21
22 23 23 21 21 22 23 24 25 28 28 4 2 2 1 3 3 9 4 8 6 4 7 8 9 9 10 12 2 8 6 5 9 11 9 6 5 7 8 11 6 6 14 17 17 11 19
21 22 22 21 20 21 22 23 25 27 26 4 3 2 1 1 3 10 2 4 9 4 3 3 4 2 4 4 5 4 6 7 6 7 5 5 4 9 17 22 21 20 23 23 20 21 19
21 22 21 20 19 20 21 22 24 24 22 3 4 4 6 2 6 12 4 6 6 4 2 2 3 5 3 2 2 3 5 6 6 10 10 4 3 4 16 22 21 21 22 18 19 20 20
20 20 20 20 20 20 20 20 21 23 16 3 1 2 4 2 5 6 4 8 6 4 4 5 3 4 2 1 4 4 3 3 2 4 11 5 3 3 7 11 19 10 4 8 11 13 10
19 19 19 20 20 20 20 20 21 21 19 2 1 2 4 2 7 5 5 5 7 4 3 3 0 2 3 6 5 4 7 9 10 11 8 4 4 2 7 10 4 2 4 8 10 14 9
17 18 18 18 19 19 19 19 19 20 22 2 2 3 3 1 5 4 7 4 7 5 2 3 1 4 2 2 3 4 2 1 8 14 10 11 4 3 4 6 16 6 3 4 4 8 12
15 16 17 18 19 20 20 20 20 20 20 5 1 3 2 4 5 3 5 6 5 4 4 2 2 2 2 2 1 2 2 3 3 5 3 8 9 4 2 4 5 5 9 3 1 2 15
13 14 15 16 16 18 19 19 18 18 20 9 1 3 2 3 2 6 6 6 4 5 2 1 2 1 3 1 2 2 4 1 3 3 6 4 3 5 6 4 9 7 5 1 2 8 13
14 13 13 14 15 16 18 18 18 17 17 11 3 2 3 3 8 5 7 4 4 5 3 4 3 3 2 3 1 2 3 2 4 5 4 6 5 5 4 5 6 3 5 7 6 7 7
15 13 13 13 14 14 17 18 17 17 17 13 3 2 1 4 5 7 5 5 6 3 1 4 3 3 1 2 2 2 3 3 5 3 3 5 6 3 5 3 7 5 9 8 5 7 6
Wind_Direction
357 352 342 349 346 344 341 338 338 335 333 329 330 320 318 317 322 327 319 277 224 225 231 229 236 268 239 223 251 121 226 195 205 200 203 198 201 211 212 203 209 234 256 244 260 264 257
349 343 341 340 337 339 332 330 330 327 329 326 324 319 325 321 314 319 322 312 224 212 214 219 211 260 239 238 64 132 255 218 209 191 203 203 236 234 266 216 215 284 270 272 256 257 250
344 335 337 330 322 323 324 325 325 324 324 322 322 318 315 314 314 313 320 310 226 206 204 196 190 223 244 229 29 181 240 257 229 189 191 195 173 210 208 224 227 265 264 263 246 240 235
326 326 330 329 322 319 326 320 319 320 317 318 318 319 314 318 315 307 316 322 267 199 195 185 188 212 251 59 270 209 209 196 165 152 189 160 144 269 260 74 204 239 241 255 127 228 229
340 331 327 320 318 326 318 309 320 317 311 313 314 314 312 313 313 302 313 314 316 202 188 169 185 223 240 122 206 212 205 187 161 140 136 155 158 194 161 226 225 216 258 217 248 195 248
334 328 324 326 320 325 319 320 328 315 312 309 312 313 311 307 313 312 314 317 291 188 191 146 2 191 206 208 149 173 199 182 165 143 124 157 199 227 214 215 226 236 217 254 259 153 233
333 332 333 327 324 326 326 328 321 315 313 313 313 315 311 313 319 321 336 334 171 171 198 174 176 138 135 113 150 181 175 177 169 168 168 181 215 218 231 226 255 287 299 276 275 279 283
333 331 335 333 325 332 331 322 324 314 314 312 314 308 307 318 312 316 307 251 282 352 174 217 190 149 150 171 138 167 174 171 181 187 166 144 228 233 259 269 251 255 264 268 279 286 298
339 337 330 330 334 331 327 326 324 320 313 313 312 308 324 315 310 293 232 216 281 17 207 179 176 173 166 194 164 173 194 195 194 202 193 193 215 227 232 226 242 245 260 273 280 305 295
331 327 334 335 333 332 330 327 325 321 316 316 316 315 310 319 295 308 241 220 222 77 178 153 194 194 171 194 191 163 197 163 192 207 187 231 194 193 214 231 235 258 278 284 286 292 274
332 333 339 333 333 332 330 331 326 323 318 323 320 317 281 289 294 268 323 103 101 67 182 142 145 140 162 183 125 176 185 167 182 184 172 182 223 206 229 232 234 248 19 289 299 292 306
333 339 337 335 337 336 337 335 330 327 328 327 319 309 301 266 240 253 95 116 66 205 155 133 135 171 159 192 150 141 167 233 258 206 219 258 76 213 224 210 218 76 224 249 244 267 255
335 340 341 342 339 341 341 339 334 332 332 329 323 310 304 233 206 173 144 178 184 254 152 144 169 164 161 172 154 175 177 178 171 166 216 232 218 211 235 214 193 204 179 247 219 207 247
340 341 343 342 342 344 341 340 337 338 332 329 323 318 305 200 202 138 97 125 232 125 127 167 139 152 164 161 182 177 179 194 218 220 158 203 202 195 193 217 186 208 208 222 261 251 292
340 342 341 344 345 344 344 341 342 339 334 339 325 337 351 133 88 132 113 165 234 139 128 140 136 148 140 187 143 180 190 196 202 206 213 190 245 216 160 199 213 159 215 246 292 280 273
340 343 341 346 349 345 347 343 341 341 339 345 329 333 336 120 128 82 83 241 327 108 138 148 131 181 155 178 173 186 183 203 206 207 219 230 243 182 179 209 230 213 343 177 209 272 270
340 346 344 351 350 343 350 350 341 340 339 334 295 351 130 148 122 178 132 311 111 129 126 180 144 150 156 172 186 182 185 139 197 190 201 199 231 129 137 203 204 196 229 221 293 241 270
340 347 346 349 350 350 351 351 343 340 338 325 72 39 153 177 77 295 247 345 127 142 263 99 129 158 152 163 165 182 176 78 190 189 192 196 192 252 242 241 223 251 219 226 234 230 230
341 344 351 349 348 352 354 353 346 344 345 333 53 1 249 272 143 156 276 115 117 138 57 142 118 125 150 158 167 193 191 107 174 180 170 166 214 282 228 200 232 237 243 246 244 265 251
340 345 351 353 352 356 357 354 351 348 351 353 120 99 304 258 290 154 193 131 108 40 69 86 105 127 135 161 22 168 152 155 185 200 67 192 221 234 275 314 337 239 249 252 249 254 267
344 344 353 357 355 357 357 358 355 352 353 4 9 41 9 168 225 152 110 93 130 131 73 71 115 153 143 152 170 166 158 142 173 197 180 228 241 257 265 273 279 271 269 268 259 256 253
342 349 356 356 358 358 359 0 358 357 352 49 20 350 334 235 186 153 156 149 93 73 26 80 139 146 146 151 77 167 193 203 210 176 200 210 259 276 279 268 263 268 271 272 270 265 257
345 353 358 358 359 1 359 2 2 4 3 17 330 258 256 192 186 167 144 154 154 153 64 48 84 139 184 25 353 307 223 305 13 179 201 199 202 268 261 329 304 264 260 261 264 255 259
347 354 358 357 359 359 360 1 5 6 8 332 312 295 308 147 196 187 155 156 151 195 90 97 29 187 36 57 333 244 227 240 237 226 210 214 181 229 292 308 275 216 292 278 282 287 341
345 350 354 354 355 356 356 357 9 4 2 10 323 325 322 257 208 159 177 150 121 149 158 104 107 42 22 296 282 284 176 208 239 237 216 209 165 278 276 297 276 309 333 290 332 309 356
343 344 352 356 354 353 357 358 359 0 0 357 6 334 308 292 208 169 168 166 150 162 181 158 94 357 256 283 234 287 266 356 186 132 195 192 206 212 312 310 290 296 16 357 254 261 10
337 336 347 352 353 349 350 349 350 355 358 352 312 13 284 288 306 228 193 185 196 215 66 77 155 168 311 233 267 246 257 15 260 221 176 172 194 229 245 265 279 273 346 350 333 334 342
325 328 338 346 346 347 343 343 342 351 351 349 297 87 8 308 283 297 226 195 174 219 182 118 170 196 148 197 186 221 255 313 284 271 217 203 189 202 190 230 272 30 300 336 346 314 318
316 320 326 335 334 338 336 339 342 341 342 352 313 342 262 238 285 319 310 318 323 352 282 177 350 114 84 117 223 276 298 306 299 278 225 248 231 330 224 253 325 306 282 315 320 297 302